DW2613 Weather Reports


Display with metric or nautical units.
time (UTC)temp
F
wind
direction
speed
MPH
gust
MPH
rain 1hr
in
rain 24hr
in
rain mn
in
humidity
%
barometer
mb
20260504201526 73 350 2.0 11.0 0.00 0.00 0.00 45 1012.2
20260504200545 73 218 3.0 8.0 0.00 0.00 0.00 43 1011.8
20260504200012 73 315 3.0 13.0 0.00 0.00 0.00 45 1012.2
20260504195600 73 256 4.0 11.0 0.00 0.00 0.00 45 1011.9
20260504194620 73 162 4.0 11.0 0.00 0.00 0.00 45 1012.1
20260504194519 72 210 4.0 12.0 0.00 0.00 0.00 45 1012.5
20260504193614 73 188 2.0 10.0 0.00 0.00 0.00 46 1012.2
20260504193018 72 223 3.0 10.0 0.00 0.00 0.00 45 1012.6
20260504192637 73 63 3.0 8.0 0.00 0.00 0.00 44 1012.3
20260504191522 72 248 4.0 11.0 0.00 0.00 0.00 39 1012.8
20260504190444 72 252 3.0 9.0 0.00 0.00 0.00 38 1012.6
20260504190028 71 214 4.0 11.0 0.00 0.00 0.00 37 1012.9
20260504185447 72 146 3.0 9.0 0.00 0.00 0.00 37 1012.8
20260504184511 71 207 3.0 10.0 0.00 0.00 0.00 41 1013.1
20260504184501 71 207 2.0 8.0 0.00 0.00 0.00 42 1012.9
20260504183457 71 235 3.0 8.0 0.00 0.00 0.00 43 1013.0
20260504183002 71 165 4.0 9.0 0.00 0.00 0.00 39 1013.2
20260504182446 71 150 2.0 8.0 0.00 0.00 0.00 44 1013.0
20260504181507 70 222 3.0 10.0 0.00 0.00 0.00 40 1013.5
20260504181435 71 200 2.0 8.0 0.00 0.00 0.00 40 1013.2
20260504180452 70 254 3.0 8.0 0.00 0.00 0.00 43 1013.3
20260504180005 70 298 4.0 10.0 0.00 0.00 0.00 44 1013.6
20260504175426 70 225 3.0 9.0 0.00 0.00 0.00 43 1013.3
20260504174508 69 225 2.0 11.0 0.00 0.00 0.00 40 1013.7
20260504174439 70 163 2.0 9.0 0.00 0.00 0.00 40 1013.5
20260504173416 70 203 2.0 6.0 0.00 0.00 0.00 38 1013.5
20260504173006 69 174 2.0 9.0 0.00 0.00 0.00 38 1013.9
20260504171503 68 187 3.0 10.0 0.00 0.00 0.00 41 1014.0
20260504171234 69 145 3.0 8.0 0.00 0.00 0.00 47 1013.8
20260504170230 69 189 2.0 7.0 0.00 0.00 0.00 44 1014.0
20260504150932 63 286 3.0 9.0 0.00 0.00 0.00 57 1014.9
20260504140906 61 273 4.0 10.0 0.00 0.00 0.00 62 1015.1
20260504130636 61 257 3.0 9.0 0.00 0.00 0.00 63 1015.5
20260504110414 57 272 3.0 10.0 0.00 0.00 0.00 69 1016.1
20260504081520 56 165 2.0 11.0 0.00 0.00 0.00 78 1016.2
20260504081333 56 188 2.0 9.0 0.00 0.00 0.00 78 1016.4
20260504080317 56 184 2.0 7.0 0.00 0.00 0.00 77 1016.5
20260504050018 54 126 1.0 7.0 0.00 0.00 0.00 67 1016.5
20260504045928 55 163 1.0 6.0 0.00 0.00 0.00 67 1016.7
20260504044908 55 90 0.0 4.0 0.00 0.00 0.00 67 1016.7
20260504044520 54 90 1.0 5.0 0.00 0.00 0.00 66 1016.5
20260504043859 55 185 0.0 4.0 0.00 0.00 0.00 67 1016.6
20260504043032 54 212 1.0 5.0 0.00 0.00 0.00 66 1016.3
20260504041754 55 271 1.0 5.0 0.00 0.00 0.00 68 1016.6
20260504041524 54 136 2.0 6.0 0.00 0.00 0.00 68 1016.4
20260504040731 55 220 1.0 8.0 0.00 0.00 0.00 67 1016.5
20260504040014 54 247 2.0 10.0 0.00 0.00 0.00 65 1016.3
20260504035742 55 105 1.0 8.0 0.00 0.00 0.00 65 1016.4
20260504034803 54 234 1.0 7.0 0.00 0.00 0.00 68 1016.3
20260504034515 53 290 1.0 8.0 0.00 0.00 0.00 68 1016.2
20260504033747 52 215 0.0 5.0 0.00 0.00 0.00 72 1016.3
20260504033021 50 263 0.0 3.0 0.00 0.00 0.00 72 1016.1
20260504032715 51 245 0.0 1.0 0.00 0.00 0.00 73 1016.1
20260504031700 50 245 0.0 0.0 0.00 0.00 0.00 73 1016.1
20260504031525 50 245 0.0 3.0 0.00 0.00 0.00 73 1016.0
20260504030655 49 286 0.0 1.0 0.00 0.00 0.00 77 1016.1
20260504030030 48 289 0.0 3.0 0.00 0.00 0.00 77 1016.0
20260504025627 48 297 0.0 1.0 0.00 0.00 0.00 77 1016.1
20260504024642 48 297 0.0 0.0 0.00 0.00 0.00 78 1016.0
20260504024516 47 297 0.0 2.0 0.00 0.00 0.00 78 1016.0
20260504023621 48 297 0.0 1.0 0.00 0.00 0.00 74 1015.9
20260504023021 47 297 0.0 1.0 0.00 0.00 0.00 74 1015.9
20260504022551 48 297 0.0 0.0 0.00 0.00 0.00 75 1016.0
20260504021524 47 297 0.0 2.0 0.00 0.00 0.00 77 1016.0
20260504020351 47 297 0.0 0.0 0.00 0.00 0.00 75 1015.9
20260504020027 47 297 0.0 0.0 0.00 0.00 0.00 73 1015.9
20260504015324 47 297 0.0 0.0 0.00 0.00 0.00 73 1015.9
20260504014536 47 297 0.0 1.0 0.00 0.00 0.00 75 1015.9
20260504014251 47 297 0.0 0.0 0.00 0.00 0.00 76 1015.9
20260504013240 48 297 0.0 0.0 0.00 0.00 0.00 76 1015.8
20260504013020 47 297 0.0 1.0 0.00 0.00 0.00 76 1015.8
20260504012304 48 297 0.0 0.0 0.00 0.00 0.00 75 1015.7
20260504011523 48 297 0.0 1.0 0.00 0.00 0.00 74 1015.7
20260504011301 49 297 0.0 0.0 0.00 0.00 0.00 74 1015.6
20260504010320 49 297 0.0 0.0 0.00 0.00 0.00 70 1015.6
20260504010026 49 297 0.0 0.0 0.00 0.00 0.00 65 1015.7
20260504005251 50 297 0.0 0.0 0.00 0.00 0.00 61 1015.4
20260504004528 51 297 0.0 0.0 0.00 0.00 0.00 57 1015.5
20260504004246 52 297 0.0 0.0 0.00 0.00 0.00 57 1015.4
20260504003215 53 297 0.0 0.0 0.00 0.00 0.00 55 1015.3
20260504003010 53 297 0.0 2.0 0.00 0.00 0.00 54 1015.4
20260504002216 54 297 0.0 1.0 0.00 0.00 0.00 52 1015.2
20260504001520 55 297 0.0 3.0 0.00 0.00 0.00 50 1015.2
20260504000028 57 297 0.0 1.0 0.00 0.00 0.00 45 1014.8
20260504000003 57 297 0.0 4.0 0.00 0.00 0.00 45 1015.0
20260503235035 58 288 1.0 3.0 0.00 0.00 0.00 45 1014.8
20260503234508 58 288 1.0 6.0 0.00 0.00 0.00 43 1014.9
20260503234055 58 282 1.0 4.0 0.00 0.00 0.00 43 1014.7
20260503233024 59 285 2.0 6.0 0.00 0.00 0.00 41 1014.7
20260503233010 59 284 3.0 8.0 0.00 0.00 0.00 41 1015.0
20260503231516 59 285 5.0 9.0 0.00 0.00 0.00 37 1015.0
20260503230018 60 255 6.0 11.0 0.00 0.00 0.00 36 1015.0
20260503225735 61 288 3.0 8.0 0.00 0.00 0.00 38 1014.7
20260503224717 61 280 4.0 8.0 0.00 0.00 0.00 37 1014.7
20260503224520 61 281 5.0 10.0 0.00 0.00 0.00 36 1015.0
20260503223707 61 288 4.0 10.0 0.00 0.00 0.00 35 1014.6
20260503223009 61 304 5.0 12.0 0.00 0.00 0.00 33 1014.9
20260503222721 61 338 4.0 10.0 0.00 0.00 0.00 34 1014.7
20260503221719 61 350 5.0 10.0 0.00 0.00 0.00 35 1014.6
20260503221513 61 285 7.0 13.0 0.00 0.00 0.00 34 1014.9
20260503220743 61 309 5.0 11.0 0.00 0.00 0.00 34 1014.7
20260503220024 61 279 5.0 13.0 0.00 0.00 0.00 33 1015.0
20260503215721 61 283 4.0 11.0 0.00 0.00 0.00 34 1014.7
20260503214715 61 309 8.0 14.0 0.00 0.00 0.00 33 1014.7
20260503214525 60 336 10.0 16.0 0.00 0.00 0.00 33 1015.1
20260503213722 61 303 7.0 14.0 0.00 0.00 0.00 34 1014.7
20260503213024 61 297 7.0 16.0 0.00 0.00 0.00 34 1014.9
20260503212717 61 355 6.0 14.0 0.00 0.00 0.00 35 1014.6
20260503211511 60 311 6.0 16.0 0.00 0.00 0.00 34 1014.8
20260503210530 61 277 4.0 14.0 0.00 0.00 0.00 34 1014.4
20260503210013 60 284 7.0 16.0 0.00 0.00 0.00 34 1014.9
20260503205555 61 338 6.0 14.0 0.00 0.00 0.00 35 1014.5
20260503204557 60 25 6.0 17.0 0.00 0.00 0.00 35 1014.5
20260503204521 60 321 5.0 18.0 0.00 0.00 0.00 34 1014.8
20260503203608 61 298 6.0 17.0 0.00 0.00 0.00 34 1014.6
20260503203023 60 341 9.0 19.0 0.00 0.00 0.00 33 1015.0
20260503202554 60 305 6.0 17.0 0.00 0.00 0.00 36 1014.6